Location: Newark
(39.5667°N, 8.9833°E)
Time: 11:48:20
(UTC+00:00)

Tiros 1 despin weight - Visible Passes

Search period start: 19 October 2019 00:00
Search period end: 29 October 2019 00:00
Orbit: 593 x 643 km, 48.2° (Epoch: 19 October)

Date Brightness Start Highest point End Pass type
(mag) Time Alt. Az. Time Alt. Az. Time Alt. Az.
19 Oct ? 03:30:41 28° N 03:30:57 28° N 03:35:00 10° ENE visible
19 Oct ? 05:08:52 10° NW 05:13:22 43° NNE 05:17:48 10° E visible
20 Oct ? 02:09:34 11° NE 02:09:34 11° NE 02:09:41 10° NE visible
20 Oct ? 03:46:38 26° NNW 03:47:55 30° N 03:52:03 10° ENE visible
21 Oct ? 02:25:33 14° NE 02:25:33 14° NE 02:26:26 10° NE visible
21 Oct ? 04:02:37 23° NW 04:04:50 36° NNE 04:09:09 10° E visible
22 Oct ? 02:41:34 20° NE 02:41:34 20° NE 02:43:23 10° ENE visible
22 Oct ? 04:18:37 20° NW 04:21:39 50° NNE 04:26:11 10° E visible
23 Oct ? 02:57:37 27° NE 02:57:37 27° NE 03:00:29 10° ENE visible
23 Oct ? 04:34:42 17° NW 04:38:20 79° NNE 04:43:01 10° ESE visible
24 Oct ? 03:13:46 38° NE 03:13:46 38° NE 03:17:34 10° E visible
24 Oct ? 04:50:51 13° WNW 04:54:54 59° SW 04:59:29 10° SE visible
25 Oct ? 03:30:00 60° NNE 03:30:00 60° NNE 03:34:32 10° ESE visible
25 Oct ? 05:07:10 10° WNW 05:11:19 31° SW 05:15:25 10° SSE visible
26 Oct ? 03:46:18 78° W 03:46:32 83° SW 03:51:14 10° SE visible
27 Oct ? 02:25:36 12° E 02:25:36 12° E 02:25:57 10° E visible
27 Oct ? 04:02:42 44° SW 04:03:02 45° SW 04:07:29 10° SSE visible
28 Oct ? 02:42:06 14° ESE 02:42:06 14° ESE 02:42:49 10° ESE visible
28 Oct ? 04:19:13 24° SW 04:19:23 24° SW 04:23:08 10° S visible
